Flag for U.S.A. Weather past 2 weeks in Sunnyvale, California, U.S.A.

Now
64 °F

Overcast.


Feels Like: 64 °F
Forecast: 61 / 83 °F
Wind: 5 mph from Northeast

Location: Moffett Field

Current Time: Jul 30, 2015 at 6:21:27 AM

Latest Report: Jul 30, 2015 at 5:56 AM


Visibility: 10 mi

Pressure: 30.01 "Hg

Humidity: 87%

Dew point: 60 °F

Location of SunnyvaleLocation

Historic Weather in Sunnyvale — Graph

°F

Sunnyvale temperature yesterday

Maximum temperature yesterday: 84 °F (at 1:56 PM)
Minimum temperature yesterday: 65 °F (at 5:56 AM)
Average temperature yesterday: 73 °F

Past Weeks' High & Low Weather Summary

 TemperatureHumidityPressure
High90 °F (Jul 28, 2:56 PM)90% (Jul 25, 3:56 AM)30.14 "Hg (Jul 25, 3:56 AM)
Low56 °F (Jul 24, 4:56 AM)32% (Jul 28, 1:56 PM)29.79 "Hg (Jul 17, 5:56 PM)
Average69 °F66%29.95 "Hg
* Reported Jul 15 4:56 AM — Jul 30 4:56 AM, Sunnyvale, Weather by CustomWeather, © 2015

Note: Actual official high and low records may vary slightly from our data, if they occured in-between our weather recording intervals... More about our weather records

Advertising

Sunnyvale weather history for previous 24 hours

 ConditionsComfort  
Time TempWeatherWind HumidityBarometerVisibility
4:56 AM
Thu, Jul 30
64 °FOvercast.6 mph87%29.99 "Hg10 mi
3:56 AM64 °FOvercast.7 mph87%29.98 "Hg10 mi
2:56 AM64 °FPassing clouds.6 mph90%29.98 "Hg10 mi
1:56 AM64 °FClear.5 mph87%29.98 "Hg10 mi
12:56 AM65 °FClear.3 mph87%29.98 "Hg10 mi
11:56 PM
Wed, Jul 29
65 °FClear.No wind87%29.98 "Hg10 mi
10:56 PM66 °FClear.3 mph81%29.97 "Hg10 mi
9:56 PM66 °FClear.6 mph84%29.97 "Hg10 mi
8:56 PM68 °FSunny.8 mph76%29.94 "Hg10 mi
7:56 PM71 °FSunny.8 mph68%29.92 "Hg10 mi
6:56 PM74 °FSunny.14 mph62%29.91 "Hg10 mi
5:56 PM78 °FSunny.13 mph52%29.89 "Hg10 mi
4:56 PM80 °FSunny.9 mph44%29.89 "Hg10 mi
3:56 PM83 °FSunny.13 mph43%29.89 "Hg10 mi
2:56 PM84 °FSunny.10 mph40%29.90 "Hg10 mi
1:56 PM84 °FSunny.10 mph40%29.91 "Hg10 mi
12:56 PM81 °FSunny.10 mph49%29.91 "Hg10 mi
11:56 AM80 °FSunny.9 mph47%29.93 "Hg10 mi
10:56 AM76 °FSunny.6 mph62%29.93 "Hg10 mi
9:56 AM74 °FSunny.6 mph67%29.93 "Hg10 mi
8:56 AM71 °FSunny.No wind76%29.93 "Hg10 mi
7:56 AM69 °FSunny.6 mph79%29.92 "Hg9 mi
6:56 AM65 °FClear.No wind76%29.90 "Hg10 mi
Weather by CustomWeather, © 2015

See weather overviewHow to use our weather pages